Year,Month,Day,Hour,Minute,Value (Times are PST for temperature in C)
2011,04,05,00,00,2.40
2011,04,05,00,01,2.40
2011,04,05,00,02,2.40
2011,04,05,00,03,2.40
2011,04,05,00,04,2.40
2011,04,05,00,05,2.40
2011,04,05,00,06,2.40
2011,04,05,00,07,2.40
2011,04,05,00,08,2.40
2011,04,05,00,09,2.40
2011,04,05,00,10,2.40
2011,04,05,00,11,2.40
2011,04,05,00,12,2.40
2011,04,05,00,13,2.40
2011,04,05,00,14,2.40
2011,04,05,00,15,2.40
2011,04,05,00,16,2.40
2011,04,05,00,17,2.50
2011,04,05,00,18,2.50
2011,04,05,00,19,2.50
2011,04,05,00,20,2.50
2011,04,05,00,21,2.50
2011,04,05,00,22,2.50
2011,04,05,00,23,2.50
2011,04,05,00,24,2.50
2011,04,05,00,25,2.50
2011,04,05,00,26,2.60
2011,04,05,00,27,2.50
2011,04,05,00,28,2.60
2011,04,05,00,29,2.50
2011,04,05,00,30,2.50
2011,04,05,00,31,2.50
2011,04,05,00,32,2.50
2011,04,05,00,33,2.50
2011,04,05,00,34,2.50
2011,04,05,00,35,2.50
2011,04,05,00,36,2.50
2011,04,05,00,37,2.40
2011,04,05,00,38,2.40
2011,04,05,00,39,2.40
2011,04,05,00,40,2.40
2011,04,05,00,41,2.40
2011,04,05,00,42,2.40
2011,04,05,00,43,2.30
2011,04,05,00,44,2.30
2011,04,05,00,45,2.40
2011,04,05,00,46,2.40
2011,04,05,00,47,2.40
2011,04,05,00,48,2.40
2011,04,05,00,49,2.50
2011,04,05,00,50,2.50
2011,04,05,00,51,2.60
2011,04,05,00,52,2.60
2011,04,05,00,53,2.60
2011,04,05,00,54,2.60
2011,04,05,00,55,2.70
2011,04,05,00,56,2.70
2011,04,05,00,57,2.70
2011,04,05,00,58,2.70
2011,04,05,00,59,2.70
2011,04,05,01,00,2.70
2011,04,05,01,01,2.80
2011,04,05,01,02,2.80
2011,04,05,01,03,2.80
2011,04,05,01,04,2.80
2011,04,05,01,05,2.80
2011,04,05,01,06,2.80
2011,04,05,01,07,2.80
2011,04,05,01,08,2.80
2011,04,05,01,09,2.80
2011,04,05,01,10,2.80
2011,04,05,01,11,2.80
2011,04,05,01,12,2.90
2011,04,05,01,13,2.90
2011,04,05,01,14,2.90
2011,04,05,01,15,2.90
2011,04,05,01,16,2.90
2011,04,05,01,17,2.90
2011,04,05,01,18,2.90
2011,04,05,01,19,2.90
2011,04,05,01,20,2.90
2011,04,05,01,21,2.90
2011,04,05,01,22,2.90
2011,04,05,01,23,2.90
2011,04,05,01,24,2.90
2011,04,05,01,25,2.90
2011,04,05,01,26,2.90
2011,04,05,01,27,2.90
2011,04,05,01,28,2.80
2011,04,05,01,29,2.80
2011,04,05,01,30,2.80
2011,04,05,01,31,2.80
2011,04,05,01,32,2.80
2011,04,05,01,33,2.80
2011,04,05,01,34,2.80
2011,04,05,01,35,2.80
2011,04,05,01,36,2.80
2011,04,05,01,37,2.80
2011,04,05,01,38,2.80
2011,04,05,01,39,2.80
2011,04,05,01,40,2.80
2011,04,05,01,41,2.80
2011,04,05,01,42,2.80
2011,04,05,01,43,2.80
2011,04,05,01,44,2.70
2011,04,05,01,45,2.70
2011,04,05,01,46,2.70
2011,04,05,01,47,2.70
2011,04,05,01,48,2.70
2011,04,05,01,49,2.70
2011,04,05,01,50,2.80
2011,04,05,01,51,2.80
2011,04,05,01,52,2.80
2011,04,05,01,53,2.80
2011,04,05,01,54,2.80
2011,04,05,01,55,2.80
2011,04,05,01,56,2.80
2011,04,05,01,57,2.80
2011,04,05,01,58,2.80
2011,04,05,01,59,2.80
2011,04,05,02,00,2.80
2011,04,05,02,01,2.80
2011,04,05,02,02,2.80
2011,04,05,02,03,2.80
2011,04,05,02,04,2.80
2011,04,05,02,05,2.80
2011,04,05,02,06,2.80
2011,04,05,02,07,2.80
2011,04,05,02,08,2.80
2011,04,05,02,09,2.80
2011,04,05,02,10,2.80
2011,04,05,02,11,2.80
2011,04,05,02,12,2.80
2011,04,05,02,13,2.80
2011,04,05,02,14,2.80
2011,04,05,02,15,2.80
2011,04,05,02,16,2.70
2011,04,05,02,17,2.70
2011,04,05,02,18,2.70
2011,04,05,02,19,2.70
2011,04,05,02,20,2.70
2011,04,05,02,21,2.70
2011,04,05,02,22,2.70
2011,04,05,02,23,2.70
2011,04,05,02,24,2.80
2011,04,05,02,25,2.80
2011,04,05,02,26,2.80
2011,04,05,02,27,2.80
2011,04,05,02,28,2.80
2011,04,05,02,29,2.80
2011,04,05,02,30,2.80
2011,04,05,02,31,2.90
2011,04,05,02,32,2.90
2011,04,05,02,33,2.90
2011,04,05,02,34,2.90
2011,04,05,02,35,2.90
2011,04,05,02,36,3.00
2011,04,05,02,37,3.00
2011,04,05,02,38,3.00
2011,04,05,02,39,3.00
2011,04,05,02,40,3.10
2011,04,05,02,41,3.10
2011,04,05,02,42,3.10
2011,04,05,02,43,3.10
2011,04,05,02,44,3.10
2011,04,05,02,45,3.10
2011,04,05,02,46,3.10
2011,04,05,02,47,3.10
2011,04,05,02,48,3.10
2011,04,05,02,49,3.10
2011,04,05,02,50,3.10
2011,04,05,02,51,3.10
2011,04,05,02,52,3.10
2011,04,05,02,53,3.10
2011,04,05,02,54,3.10
2011,04,05,02,55,3.10
2011,04,05,02,56,3.10
2011,04,05,02,57,3.00
2011,04,05,02,58,3.00
2011,04,05,02,59,3.00
2011,04,05,03,00,3.00
2011,04,05,03,01,3.00
2011,04,05,03,02,3.00
2011,04,05,03,06,2.90
2011,04,05,03,07,2.90
2011,04,05,03,08,2.90
2011,04,05,03,09,2.90
2011,04,05,03,10,2.90
2011,04,05,03,11,2.90
2011,04,05,03,12,2.90
2011,04,05,03,13,2.90
2011,04,05,03,14,2.90
2011,04,05,03,15,2.90
2011,04,05,03,16,2.90
2011,04,05,03,17,2.90
2011,04,05,03,18,2.90
2011,04,05,03,19,2.90
2011,04,05,03,20,2.90
2011,04,05,03,21,2.90
2011,04,05,03,22,2.90
2011,04,05,03,23,2.90
2011,04,05,03,24,2.80
2011,04,05,03,25,2.80
2011,04,05,03,26,2.80
2011,04,05,03,27,2.80
2011,04,05,03,28,2.80
2011,04,05,03,29,2.80
2011,04,05,03,30,2.80
2011,04,05,03,31,2.80
2011,04,05,03,32,2.70
2011,04,05,03,33,2.70
2011,04,05,03,34,2.70
2011,04,05,03,35,2.70
2011,04,05,03,36,2.70
2011,04,05,03,37,2.70
2011,04,05,03,38,2.70
2011,04,05,03,39,2.60
2011,04,05,03,40,2.60
2011,04,05,03,41,2.60
2011,04,05,03,42,2.60
2011,04,05,03,43,2.60
2011,04,05,03,44,2.60
2011,04,05,03,45,2.60
2011,04,05,03,46,2.50
2011,04,05,03,47,2.50
2011,04,05,03,48,2.50
2011,04,05,03,49,2.50
2011,04,05,03,50,2.50
2011,04,05,03,51,2.50
2011,04,05,03,52,2.40
2011,04,05,03,53,2.40
2011,04,05,03,54,2.40
2011,04,05,03,55,2.40
2011,04,05,03,56,2.40
2011,04,05,03,57,2.40
2011,04,05,03,58,2.30
2011,04,05,03,59,2.30
2011,04,05,04,00,2.30
2011,04,05,04,01,2.30
2011,04,05,04,02,2.30
2011,04,05,04,03,2.30
2011,04,05,04,04,2.30
2011,04,05,04,05,2.30
2011,04,05,04,06,2.30
2011,04,05,04,07,2.30
2011,04,05,04,08,2.30
2011,04,05,04,09,2.30
2011,04,05,04,10,2.30
2011,04,05,04,11,2.30
2011,04,05,04,12,2.30
2011,04,05,04,13,2.30
2011,04,05,04,14,2.30
2011,04,05,04,15,2.30
2011,04,05,04,16,2.30
2011,04,05,04,17,2.30
2011,04,05,04,18,2.30
2011,04,05,04,19,2.30
2011,04,05,04,20,2.20
2011,04,05,04,21,2.20
2011,04,05,04,22,2.20
2011,04,05,04,23,2.20
2011,04,05,04,24,2.20
2011,04,05,04,25,2.20
2011,04,05,04,26,2.20
2011,04,05,04,27,2.10
2011,04,05,04,28,2.10
2011,04,05,04,29,2.10
2011,04,05,04,30,2.10
2011,04,05,04,31,2.00
2011,04,05,04,32,2.00
2011,04,05,04,33,2.00
2011,04,05,04,34,1.90
2011,04,05,04,35,1.90
2011,04,05,04,36,1.90
2011,04,05,04,37,1.90
2011,04,05,04,38,1.90
2011,04,05,04,39,1.80
2011,04,05,04,40,1.80
2011,04,05,04,41,1.80
2011,04,05,04,42,1.80
2011,04,05,04,43,1.80
2011,04,05,04,44,1.80
2011,04,05,04,45,1.70
2011,04,05,04,46,1.70
2011,04,05,04,47,1.70
2011,04,05,04,48,1.70
2011,04,05,04,49,1.70
2011,04,05,04,50,1.70
2011,04,05,04,51,1.60
2011,04,05,04,52,1.60
2011,04,05,04,53,1.60
2011,04,05,04,54,1.60
2011,04,05,04,55,1.60
2011,04,05,04,56,1.50
2011,04,05,04,57,1.50
2011,04,05,04,58,1.50
2011,04,05,04,59,1.40
2011,04,05,05,00,1.40
2011,04,05,05,01,1.40
2011,04,05,05,02,1.40
2011,04,05,05,03,1.40
2011,04,05,05,04,1.30
2011,04,05,05,05,1.30
2011,04,05,05,06,1.30
2011,04,05,05,07,1.30
2011,04,05,05,08,1.30
2011,04,05,05,09,1.30
2011,04,05,05,10,1.30
2011,04,05,05,11,1.30
2011,04,05,05,12,1.30
2011,04,05,05,13,1.30
2011,04,05,05,14,1.30
2011,04,05,05,15,1.30
2011,04,05,05,16,1.30
2011,04,05,05,17,1.20
2011,04,05,05,18,1.20
2011,04,05,05,19,1.20
2011,04,05,05,20,1.20
2011,04,05,05,21,1.20
2011,04,05,05,22,1.20
2011,04,05,05,23,1.20
2011,04,05,05,24,1.10
2011,04,05,05,25,1.10
2011,04,05,05,26,1.10
2011,04,05,05,27,1.10
2011,04,05,05,28,1.10
2011,04,05,05,29,1.10
2011,04,05,05,30,1.00
2011,04,05,05,31,1.00
2011,04,05,05,32,1.00
2011,04,05,05,33,1.00
2011,04,05,05,34,1.00
2011,04,05,05,35,0.90
2011,04,05,05,36,0.90
2011,04,05,05,37,0.90
2011,04,05,05,38,0.90
2011,04,05,05,39,0.90
2011,04,05,05,40,0.80
2011,04,05,05,41,0.80
2011,04,05,05,42,0.80
2011,04,05,05,43,0.80
2011,04,05,05,44,0.80
2011,04,05,05,45,0.80
2011,04,05,05,46,0.70
2011,04,05,05,47,0.70
2011,04,05,05,48,0.70
2011,04,05,05,49,0.70
2011,04,05,05,50,0.70
2011,04,05,05,51,0.70
2011,04,05,05,52,0.70
2011,04,05,05,53,0.70
2011,04,05,05,54,0.70
2011,04,05,05,55,0.70
2011,04,05,05,56,0.70
2011,04,05,05,57,0.70
2011,04,05,05,58,0.70
2011,04,05,05,59,0.70
2011,04,05,06,00,0.60
2011,04,05,06,01,0.60
2011,04,05,06,02,0.60
2011,04,05,06,03,0.60
2011,04,05,06,04,0.60
2011,04,05,06,05,0.60
2011,04,05,06,06,0.60
2011,04,05,06,07,0.60
2011,04,05,06,08,0.60
2011,04,05,06,09,0.60
2011,04,05,06,10,0.60
2011,04,05,06,11,0.60
2011,04,05,06,12,0.60
2011,04,05,06,13,0.60
2011,04,05,06,14,0.60
2011,04,05,06,15,0.60
2011,04,05,06,16,0.60
2011,04,05,06,17,0.60
2011,04,05,06,18,0.60
2011,04,05,06,19,0.60
2011,04,05,06,20,0.60
2011,04,05,06,21,0.60
2011,04,05,06,22,0.60
2011,04,05,06,23,0.60
2011,04,05,06,24,0.60
2011,04,05,06,25,0.60
2011,04,05,06,26,0.60
2011,04,05,06,27,0.60
2011,04,05,06,28,0.60
2011,04,05,06,29,0.60
2011,04,05,06,30,0.60
2011,04,05,06,31,0.60
2011,04,05,06,32,0.60
2011,04,05,06,33,0.60
2011,04,05,06,34,0.60
2011,04,05,06,35,0.60
2011,04,05,06,36,0.60
2011,04,05,06,37,0.60
2011,04,05,06,38,0.60
2011,04,05,06,39,0.60
2011,04,05,06,40,0.60
2011,04,05,06,41,0.60
2011,04,05,06,42,0.60
2011,04,05,06,43,0.60
2011,04,05,06,44,0.60
2011,04,05,06,45,0.60
2011,04,05,06,46,0.60
2011,04,05,06,47,0.60
2011,04,05,06,48,0.60
2011,04,05,06,49,0.60
2011,04,05,06,50,0.60
2011,04,05,06,51,0.60
2011,04,05,06,52,0.60
2011,04,05,06,53,0.60
2011,04,05,06,54,0.60
2011,04,05,06,55,0.60
2011,04,05,06,56,0.60
2011,04,05,06,57,0.60
2011,04,05,06,58,0.60
2011,04,05,06,59,0.60
2011,04,05,07,00,0.60
2011,04,05,07,01,0.60
2011,04,05,07,02,0.60
2011,04,05,07,03,0.60
2011,04,05,07,04,0.60
2011,04,05,07,05,0.60
2011,04,05,07,06,0.60
2011,04,05,07,07,0.60
2011,04,05,07,08,0.60
2011,04,05,07,09,0.60
2011,04,05,07,10,0.60
2011,04,05,07,11,0.60
2011,04,05,07,12,0.60
2011,04,05,07,13,0.60
2011,04,05,07,14,0.60
2011,04,05,07,15,0.60
2011,04,05,07,16,0.60
2011,04,05,07,17,0.60
2011,04,05,07,18,0.50
2011,04,05,07,19,0.50
2011,04,05,07,20,0.50
2011,04,05,07,21,0.50
2011,04,05,07,22,0.50
2011,04,05,07,23,0.50
2011,04,05,07,24,0.50
2011,04,05,07,25,0.50
2011,04,05,07,26,0.50
2011,04,05,07,27,0.50
2011,04,05,07,28,0.50
2011,04,05,07,29,0.60
2011,04,05,07,30,0.60
2011,04,05,07,31,0.60
2011,04,05,07,32,0.60
2011,04,05,07,33,0.60
2011,04,05,07,34,0.70
2011,04,05,07,35,0.70
2011,04,05,07,36,0.70
2011,04,05,07,37,0.70
2011,04,05,07,38,0.80
2011,04,05,07,39,0.80
2011,04,05,07,40,0.80
2011,04,05,07,41,0.90
2011,04,05,07,42,0.90
2011,04,05,07,43,0.90
2011,04,05,07,44,1.00
2011,04,05,07,45,1.00
2011,04,05,07,46,1.10
2011,04,05,07,47,1.10
2011,04,05,07,48,1.10
2011,04,05,07,49,1.10
2011,04,05,07,50,1.20
2011,04,05,07,51,1.20
2011,04,05,07,52,1.30
2011,04,05,07,53,1.30
2011,04,05,07,54,1.30
2011,04,05,07,55,1.40
2011,04,05,07,56,1.40
2011,04,05,07,57,1.50
2011,04,05,07,58,1.50
2011,04,05,07,59,1.60
2011,04,05,08,00,1.70
2011,04,05,08,01,1.70
2011,04,05,08,02,1.70
2011,04,05,08,03,1.80
2011,04,05,08,04,1.80
2011,04,05,08,05,1.90
2011,04,05,08,06,2.00
2011,04,05,08,07,2.00
2011,04,05,08,08,2.10
2011,04,05,08,09,2.20
2011,04,05,08,10,2.20
2011,04,05,08,11,2.20
2011,04,05,08,12,2.30
2011,04,05,08,13,2.30
2011,04,05,08,14,2.30
2011,04,05,08,15,2.40
2011,04,05,08,16,2.40
2011,04,05,08,17,2.40
2011,04,05,08,18,2.40
2011,04,05,08,19,2.40
2011,04,05,08,20,2.50
2011,04,05,08,21,2.50
2011,04,05,08,22,2.50
2011,04,05,08,23,2.60
2011,04,05,08,24,2.60
2011,04,05,08,25,2.60
2011,04,05,08,26,2.60
2011,04,05,08,27,2.60
2011,04,05,08,28,2.60
2011,04,05,08,29,2.60
2011,04,05,08,30,2.70
2011,04,05,08,31,2.70
2011,04,05,08,32,2.70
2011,04,05,08,33,2.70
2011,04,05,08,34,2.70
2011,04,05,08,35,2.80
2011,04,05,08,36,2.80
2011,04,05,08,37,2.80
2011,04,05,08,38,2.80
2011,04,05,08,39,2.80
2011,04,05,08,40,2.80
2011,04,05,08,41,2.80
2011,04,05,08,42,2.90
2011,04,05,08,43,2.90
2011,04,05,08,44,2.90
2011,04,05,08,45,2.90
2011,04,05,08,46,2.90
2011,04,05,08,47,3.00
2011,04,05,08,48,3.00
2011,04,05,08,49,3.00
2011,04,05,08,50,3.00
2011,04,05,08,51,3.10
2011,04,05,08,52,3.10
2011,04,05,08,53,3.10
2011,04,05,08,54,3.10
2011,04,05,08,55,3.20
2011,04,05,08,56,3.20
2011,04,05,08,57,3.20
2011,04,05,08,58,3.20
2011,04,05,08,59,3.20
2011,04,05,09,00,3.20
2011,04,05,09,01,3.20
2011,04,05,09,02,3.20
2011,04,05,09,03,3.30
2011,04,05,09,04,3.30
2011,04,05,09,05,3.30
2011,04,05,09,06,3.30
2011,04,05,09,07,3.30
2011,04,05,09,08,3.30
2011,04,05,09,09,3.30
2011,04,05,09,10,3.40
2011,04,05,09,11,3.40
2011,04,05,09,12,3.40
2011,04,05,09,13,3.40
2011,04,05,09,14,3.40
2011,04,05,09,15,3.40
2011,04,05,09,16,3.40
2011,04,05,09,17,3.50
2011,04,05,09,18,3.50
2011,04,05,09,19,3.50
2011,04,05,09,20,3.50
2011,04,05,09,21,3.50
2011,04,05,09,22,3.50
2011,04,05,09,23,3.60
2011,04,05,09,24,3.60
2011,04,05,09,25,3.60
2011,04,05,09,26,3.60
2011,04,05,09,27,3.60
2011,04,05,09,28,3.60
2011,04,05,09,29,3.60
2011,04,05,09,30,3.60
2011,04,05,09,31,3.60
2011,04,05,09,32,3.60
2011,04,05,09,33,3.60
2011,04,05,09,34,3.60
2011,04,05,09,35,3.60
2011,04,05,09,36,3.60
2011,04,05,09,37,3.60
2011,04,05,09,38,3.60
2011,04,05,09,39,3.60
2011,04,05,09,40,3.70
2011,04,05,09,41,3.70
2011,04,05,09,42,3.70
2011,04,05,09,43,3.70
2011,04,05,09,44,3.70
2011,04,05,09,45,3.70
2011,04,05,09,46,3.70
2011,04,05,09,47,3.70
2011,04,05,09,48,3.80
2011,04,05,09,49,3.80
2011,04,05,09,50,3.80
2011,04,05,09,51,3.80
2011,04,05,09,52,3.80
2011,04,05,09,53,3.80
2011,04,05,09,54,3.80
2011,04,05,09,55,3.80
2011,04,05,09,56,3.80
2011,04,05,09,57,3.80
2011,04,05,09,58,3.80
2011,04,05,09,59,3.80
2011,04,05,10,00,3.80
2011,04,05,10,01,3.80
2011,04,05,10,02,3.80
2011,04,05,10,03,3.80
2011,04,05,10,04,3.80
2011,04,05,10,05,3.80
2011,04,05,10,06,3.80
2011,04,05,10,07,3.80
2011,04,05,10,08,3.80
2011,04,05,10,09,3.80
2011,04,05,10,10,3.80
2011,04,05,10,11,3.80
2011,04,05,10,12,3.90
2011,04,05,10,13,3.90
2011,04,05,10,14,3.90
2011,04,05,10,15,3.90
2011,04,05,10,16,3.90
2011,04,05,10,17,3.90
2011,04,05,10,18,3.90
2011,04,05,10,19,3.90
2011,04,05,10,20,3.90
2011,04,05,10,21,3.90
2011,04,05,10,22,3.90
2011,04,05,10,23,3.90
2011,04,05,10,24,3.90
2011,04,05,10,25,4.00
2011,04,05,10,26,4.00
2011,04,05,10,27,4.10
2011,04,05,10,28,4.10
2011,04,05,10,29,4.20
2011,04,05,10,30,4.20
2011,04,05,10,31,4.20
2011,04,05,10,32,4.30
2011,04,05,10,33,4.30
2011,04,05,10,34,4.30
2011,04,05,10,35,4.30
2011,04,05,10,36,4.30
2011,04,05,10,37,4.20
2011,04,05,10,38,4.20
2011,04,05,10,39,4.20
2011,04,05,10,40,4.20
2011,04,05,10,41,4.10
2011,04,05,10,42,4.10
2011,04,05,10,43,4.10
2011,04,05,10,44,4.10
2011,04,05,10,45,4.10
2011,04,05,10,46,4.10
2011,04,05,10,47,4.10
2011,04,05,10,48,4.10
2011,04,05,10,49,4.10
2011,04,05,10,50,4.10
2011,04,05,10,51,4.10
2011,04,05,10,52,4.10
2011,04,05,10,53,4.10
2011,04,05,10,54,4.10
2011,04,05,10,55,4.10
2011,04,05,10,56,4.10
2011,04,05,10,57,4.10
2011,04,05,10,58,4.10
2011,04,05,10,59,4.10
2011,04,05,11,00,4.10
2011,04,05,11,01,4.10
2011,04,05,11,02,4.10
2011,04,05,11,03,4.10
2011,04,05,11,04,4.10
2011,04,05,11,05,4.10
2011,04,05,11,06,4.10
2011,04,05,11,07,4.10
2011,04,05,11,08,4.20
2011,04,05,11,09,4.20
2011,04,05,11,10,4.20
2011,04,05,11,11,4.20
2011,04,05,11,12,4.30
2011,04,05,11,13,4.30
2011,04,05,11,14,4.40
2011,04,05,11,15,4.50
2011,04,05,11,16,4.50
2011,04,05,11,17,4.60
2011,04,05,11,18,4.60
2011,04,05,11,19,4.70
2011,04,05,11,20,4.70
2011,04,05,11,21,4.80
2011,04,05,11,22,4.80
2011,04,05,11,23,4.90
2011,04,05,11,24,4.90
2011,04,05,11,25,5.00
2011,04,05,11,26,5.00
2011,04,05,11,27,5.10
2011,04,05,11,28,5.10
2011,04,05,11,29,5.20
2011,04,05,11,30,5.20
2011,04,05,11,31,5.30
2011,04,05,11,32,5.30
2011,04,05,11,33,5.30
2011,04,05,11,34,5.30
2011,04,05,11,35,5.30
2011,04,05,11,36,5.30
2011,04,05,11,37,5.30
2011,04,05,11,38,5.40
2011,04,05,11,39,5.40
2011,04,05,11,40,5.40
2011,04,05,11,41,5.40
2011,04,05,11,42,5.40
2011,04,05,11,43,5.40
2011,04,05,11,44,5.40
2011,04,05,11,45,5.50
2011,04,05,11,46,5.50
2011,04,05,11,47,5.40
2011,04,05,11,48,5.40
2011,04,05,11,49,5.40
2011,04,05,11,50,5.30
2011,04,05,11,51,5.30
2011,04,05,11,52,5.30
2011,04,05,11,53,5.30
2011,04,05,11,54,5.30
2011,04,05,11,55,5.30
2011,04,05,11,56,5.30
2011,04,05,11,57,5.30
2011,04,05,11,58,5.30
2011,04,05,11,59,5.30
2011,04,05,12,00,5.30
2011,04,05,12,01,5.40
2011,04,05,12,02,5.40
2011,04,05,12,03,5.50
2011,04,05,12,04,5.50
2011,04,05,12,05,5.50
2011,04,05,12,06,5.50
2011,04,05,12,07,5.60
2011,04,05,12,08,5.60
2011,04,05,12,09,5.70
2011,04,05,12,10,5.70
2011,04,05,12,11,5.80
2011,04,05,12,12,5.80
2011,04,05,12,13,5.80
2011,04,05,12,14,5.90
2011,04,05,12,15,5.90
2011,04,05,12,16,5.90
2011,04,05,12,17,5.90
2011,04,05,12,18,6.00
2011,04,05,12,19,6.10
2011,04,05,12,20,6.10
2011,04,05,12,21,6.20
2011,04,05,12,22,6.20
2011,04,05,12,23,6.30
2011,04,05,12,24,6.40
2011,04,05,12,25,6.40
2011,04,05,12,26,6.40
2011,04,05,12,27,6.50
2011,04,05,12,28,6.50
2011,04,05,12,29,6.60
2011,04,05,12,30,6.50
2011,04,05,12,31,6.50
2011,04,05,12,32,6.50
2011,04,05,12,33,6.40
2011,04,05,12,34,6.40
2011,04,05,12,35,6.30
2011,04,05,12,36,6.30
2011,04,05,12,37,6.20
2011,04,05,12,38,6.10
2011,04,05,12,39,6.00
2011,04,05,12,40,6.00
2011,04,05,12,41,5.90
2011,04,05,12,42,5.80
2011,04,05,12,43,5.80
2011,04,05,12,44,5.70
2011,04,05,12,45,5.70
2011,04,05,12,46,5.60
2011,04,05,12,47,5.60
2011,04,05,12,48,5.60
2011,04,05,12,49,5.60
2011,04,05,12,50,5.70
2011,04,05,12,51,5.70
2011,04,05,12,52,5.70
2011,04,05,12,53,5.70
2011,04,05,12,54,5.70
2011,04,05,12,55,5.70
2011,04,05,12,56,5.70
2011,04,05,12,57,5.70
2011,04,05,12,58,5.80
2011,04,05,12,59,5.80
2011,04,05,13,00,5.80
2011,04,05,13,01,5.80
2011,04,05,13,02,5.80
2011,04,05,13,03,5.90
2011,04,05,13,04,5.90
2011,04,05,13,05,6.00
2011,04,05,13,06,6.00
2011,04,05,13,07,6.10
2011,04,05,13,08,6.10
2011,04,05,13,09,6.20
2011,04,05,13,10,6.30
2011,04,05,13,11,6.30
2011,04,05,13,12,6.30
2011,04,05,13,13,6.40
2011,04,05,13,14,6.40
2011,04,05,13,15,6.40
2011,04,05,13,16,6.40
2011,04,05,13,17,6.50
2011,04,05,13,18,6.50
2011,04,05,13,19,6.50
2011,04,05,13,20,6.60
2011,04,05,13,21,6.60
2011,04,05,13,22,6.60
2011,04,05,13,23,6.50
2011,04,05,13,24,6.40
2011,04,05,13,25,6.40
2011,04,05,13,26,6.30
2011,04,05,13,27,6.30
2011,04,05,13,28,6.30
2011,04,05,13,29,6.30
2011,04,05,13,30,6.30
2011,04,05,13,31,6.30
2011,04,05,13,32,6.30
2011,04,05,13,33,6.30
2011,04,05,13,34,6.30
2011,04,05,13,35,6.30
2011,04,05,13,36,6.30
2011,04,05,13,37,6.30
2011,04,05,13,38,6.30
2011,04,05,13,39,6.30
2011,04,05,13,40,6.30
2011,04,05,13,41,6.30
2011,04,05,13,42,6.30
2011,04,05,13,43,6.30
2011,04,05,13,44,6.30
2011,04,05,13,45,6.30
2011,04,05,13,46,6.30
2011,04,05,13,47,6.30
2011,04,05,13,48,6.30
2011,04,05,13,49,6.30
2011,04,05,13,50,6.30
2011,04,05,13,51,6.40
2011,04,05,13,52,6.40
2011,04,05,13,53,6.40
2011,04,05,13,54,6.50
2011,04,05,13,55,6.50
2011,04,05,13,56,6.60
2011,04,05,13,57,6.60
2011,04,05,13,58,6.60
2011,04,05,13,59,6.60
2011,04,05,14,00,6.60
2011,04,05,14,01,6.70
2011,04,05,14,02,6.70
2011,04,05,14,03,6.70
2011,04,05,14,04,6.70
2011,04,05,14,05,6.70
2011,04,05,14,06,6.70
2011,04,05,14,07,6.80
2011,04,05,14,08,6.70
2011,04,05,14,09,6.70
2011,04,05,14,10,6.70
2011,04,05,14,11,6.70
2011,04,05,14,12,6.70
2011,04,05,14,13,6.70
2011,04,05,14,14,6.70
2011,04,05,14,15,6.70
2011,04,05,14,16,6.70
2011,04,05,14,17,6.70
2011,04,05,14,18,6.70
2011,04,05,14,19,6.70
2011,04,05,14,20,6.70
2011,04,05,14,21,6.60
2011,04,05,14,22,6.60
2011,04,05,14,23,6.60
2011,04,05,14,24,6.60
2011,04,05,14,25,6.60
2011,04,05,14,26,6.60
2011,04,05,14,27,6.60
2011,04,05,14,28,6.60
2011,04,05,14,29,6.60
2011,04,05,14,30,6.60
2011,04,05,14,31,6.70
2011,04,05,14,32,6.70
2011,04,05,14,33,6.70
2011,04,05,14,34,6.70
2011,04,05,14,35,6.80
2011,04,05,14,36,6.80
2011,04,05,14,37,6.80
2011,04,05,14,38,6.80
2011,04,05,14,39,6.80
2011,04,05,14,40,6.90
2011,04,05,14,41,6.90
2011,04,05,14,42,6.90
2011,04,05,14,43,6.90
2011,04,05,14,44,6.90
2011,04,05,14,45,7.00
2011,04,05,14,46,7.00
2011,04,05,14,47,7.00
2011,04,05,14,48,7.00
2011,04,05,14,49,7.00
2011,04,05,14,50,7.10
2011,04,05,14,51,7.10
2011,04,05,14,52,7.10
2011,04,05,14,53,7.10
2011,04,05,14,54,7.20
2011,04,05,14,55,7.20
2011,04,05,14,56,7.20
2011,04,05,14,57,7.20
2011,04,05,14,58,7.30
2011,04,05,14,59,7.30
2011,04,05,15,00,7.30
2011,04,05,15,01,7.40
2011,04,05,15,02,7.40
2011,04,05,15,03,7.40
2011,04,05,15,04,7.50
2011,04,05,15,05,7.50
2011,04,05,15,06,7.60
2011,04,05,15,07,7.60
2011,04,05,15,08,7.70
2011,04,05,15,09,7.80
2011,04,05,15,10,7.80
2011,04,05,15,11,7.90
2011,04,05,15,12,7.90
2011,04,05,15,13,8.00
2011,04,05,15,14,8.10
2011,04,05,15,15,8.10
2011,04,05,15,16,8.20
2011,04,05,15,17,8.20
2011,04,05,15,18,8.30
2011,04,05,15,19,8.40
2011,04,05,15,20,8.50
2011,04,05,15,21,8.50
2011,04,05,15,22,8.60
2011,04,05,15,23,8.60
2011,04,05,15,24,8.70
2011,04,05,15,25,8.70
2011,04,05,15,26,8.70
2011,04,05,15,27,8.80
2011,04,05,15,28,8.80
2011,04,05,15,29,8.90
2011,04,05,15,30,8.90
2011,04,05,15,31,9.00
2011,04,05,15,32,9.10
2011,04,05,15,33,9.20
2011,04,05,15,34,9.30
2011,04,05,15,35,9.30
2011,04,05,15,36,9.30
2011,04,05,15,37,9.30
2011,04,05,15,38,9.30
2011,04,05,15,39,9.30
2011,04,05,15,40,9.30
2011,04,05,15,41,9.40
2011,04,05,15,42,9.40
2011,04,05,15,43,9.40
2011,04,05,15,44,9.40
2011,04,05,15,45,9.30
2011,04,05,15,46,9.30
2011,04,05,15,47,9.30
2011,04,05,15,48,9.30
2011,04,05,15,49,9.30
2011,04,05,15,50,9.30
2011,04,05,15,51,9.30
2011,04,05,15,52,9.30
2011,04,05,15,53,9.30
2011,04,05,15,54,9.30
2011,04,05,15,55,9.30
2011,04,05,15,56,9.30
2011,04,05,15,57,9.30
2011,04,05,15,58,9.20
2011,04,05,15,59,9.10
2011,04,05,16,00,9.00
2011,04,05,16,01,8.90
2011,04,05,16,02,8.90
2011,04,05,16,03,8.80
2011,04,05,16,04,8.80
2011,04,05,16,05,8.80
2011,04,05,16,06,8.70
2011,04,05,16,07,8.70
2011,04,05,16,08,8.70
2011,04,05,16,09,8.70
2011,04,05,16,10,8.60
2011,04,05,16,11,8.60
2011,04,05,16,12,8.60
2011,04,05,16,13,8.60
2011,04,05,16,14,8.60
2011,04,05,16,15,8.60
2011,04,05,16,16,8.50
2011,04,05,16,17,8.50
2011,04,05,16,18,8.50
2011,04,05,16,19,8.40
2011,04,05,16,20,8.40
2011,04,05,16,21,8.30
2011,04,05,16,22,8.30
2011,04,05,16,23,8.20
2011,04,05,16,24,8.10
2011,04,05,16,25,8.00
2011,04,05,16,26,7.90
2011,04,05,16,27,7.90
2011,04,05,16,28,7.80
2011,04,05,16,29,7.70
2011,04,05,16,30,7.70
2011,04,05,16,31,7.60
2011,04,05,16,32,7.60
2011,04,05,16,33,7.50
2011,04,05,16,34,7.50
2011,04,05,16,35,7.40
2011,04,05,16,36,7.40
2011,04,05,16,37,7.30
2011,04,05,16,38,7.30
2011,04,05,16,39,7.20
2011,04,05,16,40,7.10
2011,04,05,16,41,7.00
2011,04,05,16,42,7.00
2011,04,05,16,43,6.90
2011,04,05,16,44,6.90
2011,04,05,16,45,6.80
2011,04,05,16,46,6.80
2011,04,05,16,47,6.80
2011,04,05,16,48,6.80
2011,04,05,16,49,6.80
2011,04,05,16,50,6.80
2011,04,05,16,51,6.80
2011,04,05,16,52,6.80
2011,04,05,16,53,6.80
2011,04,05,16,54,6.80
2011,04,05,16,55,6.80
2011,04,05,16,56,6.80
2011,04,05,16,57,6.80
2011,04,05,16,58,6.80
2011,04,05,16,59,6.90
2011,04,05,17,00,6.90
2011,04,05,17,01,6.90
2011,04,05,17,02,6.80
2011,04,05,17,03,6.80
2011,04,05,17,04,6.80
2011,04,05,17,05,6.80
2011,04,05,17,06,6.80
2011,04,05,17,07,6.80
2011,04,05,17,08,6.70
2011,04,05,17,09,6.70
2011,04,05,17,10,6.70
2011,04,05,17,11,6.60
2011,04,05,17,12,6.60
2011,04,05,17,13,6.60
2011,04,05,17,14,6.60
2011,04,05,17,15,6.60
2011,04,05,17,16,6.50
2011,04,05,17,17,6.50
2011,04,05,17,18,6.40
2011,04,05,17,19,6.40
2011,04,05,17,20,6.30
2011,04,05,17,21,6.30
2011,04,05,17,22,6.20
2011,04,05,17,23,6.20
2011,04,05,17,24,6.10
2011,04,05,17,25,6.00
2011,04,05,17,26,6.00
2011,04,05,17,27,5.90
2011,04,05,17,28,5.90
2011,04,05,17,29,5.90
2011,04,05,17,30,5.80
2011,04,05,17,31,5.80
2011,04,05,17,32,5.70
2011,04,05,17,33,5.70
2011,04,05,17,34,5.60
2011,04,05,17,35,5.60
2011,04,05,17,36,5.60
2011,04,05,17,37,5.60
2011,04,05,17,38,5.50
2011,04,05,17,39,5.50
2011,04,05,17,40,5.50
2011,04,05,17,41,5.50
2011,04,05,17,42,5.50
2011,04,05,17,43,5.40
2011,04,05,17,44,5.40
2011,04,05,17,45,5.40
2011,04,05,17,46,5.40
2011,04,05,17,47,5.30
2011,04,05,17,48,5.30
2011,04,05,17,49,5.30
2011,04,05,17,50,5.30
2011,04,05,17,51,5.30
2011,04,05,17,52,5.20
2011,04,05,17,53,5.20
2011,04,05,17,54,5.20
2011,04,05,17,55,5.20
2011,04,05,17,56,5.20
2011,04,05,17,57,5.20
2011,04,05,17,58,5.20
2011,04,05,17,59,5.10
2011,04,05,18,00,5.10
2011,04,05,18,01,5.10
2011,04,05,18,02,5.10
2011,04,05,18,03,5.10
2011,04,05,18,04,5.10
2011,04,05,18,05,5.10
2011,04,05,18,06,5.10
2011,04,05,18,07,5.00
2011,04,05,18,08,5.00
2011,04,05,18,09,5.00